Date,TemperatureHighF,TemperatureAvgF,TemperatureLowF,DewpointHighF,DewpointAvgF,DewpointLowF,HumidityHigh,HumidityAvg,HumidityLow,PressureMaxIn,PressureMinIn,WindSpeedMaxMPH,WindSpeedAvgMPH,GustSpeedMaxMPH,PrecipitationSumIn
2013-8-1,75.5,62.8,51.3,58.0,53.0,48.7,94,73,48,30.04,29.93,0,0,0,0.00
2013-8-2,86.6,64.6,49.6,59.4,52.6,47.0,94,69,39,29.95,29.86,0,0,0,0.00
2013-8-3,81.5,61.2,53.1,59.5,53.1,49.3,92,77,46,29.95,29.89,0,0,0,0.00
2013-8-4,76.6,60.2,53.7,58.8,53.2,50.8,91,79,52,29.99,29.93,0,0,0,0.00
2013-8-5,77.1,59.8,53.7,59.5,53.4,50.1,93,81,52,30.01,29.92,0,0,0,0.00
2013-8-6,74.1,61.0,52.6,57.3,54.0,50.6,94,79,55,30.03,29.96,0,0,0,0.00
2013-8-7,71.7,62.6,56.5,58.9,56.2,53.8,92,81,63,30.08,30.01,4,0,6,0.00
2013-8-8,76.4,62.6,54.9,60.0,55.6,51.9,93,79,55,30.02,29.93,0,0,0,0.00
2013-8-9,75.9,60.9,54.1,59.4,54.7,51.9,94,81,55,29.98,29.90,0,0,0,0.00
2013-8-10,76.7,63.2,56.4,59.8,56.2,53.2,91,79,54,30.02,29.96,0,0,0,0.00
2013-8-11,78.3,62.5,55.1,60.8,55.8,53.1,94,81,53,30.01,29.92,0,0,0,0.00
2013-8-12,83.3,62.7,54.6,62.0,55.0,52.1,94,79,47,29.98,29.91,0,0,0,0.00
2013-8-13,87.5,66.2,54.6,61.0,55.3,51.8,94,72,40,29.98,29.88,0,0,0,0.00
2013-8-14,88.7,67.2,50.1,60.4,55.0,46.4,92,69,32,29.95,29.86,0,0,0,0.00
2013-8-15,85.8,68.9,57.7,66.6,61.3,55.0,95,79,49,29.93,29.88,0,0,0,0.00
2013-8-16,88.9,68.4,58.2,66.8,59.6,54.9,96,77,44,29.96,29.91,0,0,0,0.00
2013-8-17,85.6,67.8,53.2,61.0,56.5,50.9,94,70,39,29.96,29.81,5,0,5,0.00
2013-8-18,92.1,70.7,54.6,65.3,58.1,51.7,93,68,40,29.87,29.74,7,0,10,0.00
2013-8-19,87.9,69.8,59.0,64.9,58.3,53.8,91,70,43,29.86,29.76,0,0,0,0.00
2013-8-20,85.9,67.0,60.2,62.7,59.0,56.3,93,78,43,29.88,29.78,0,0,0,0.00
2013-8-21,78.8,64.1,56.8,59.7,56.1,52.6,88,77,51,29.93,29.84,8,0,11,0.00
2013-8-22,73.2,61.9,56.3,57.9,55.0,52.8,92,79,56,29.96,29.88,6,0,10,0.00
2013-8-23,79.5,64.0,57.0,60.4,55.7,52.2,91,76,51,29.91,29.77,8,0,8,0.00
2013-8-24,80.0,64.6,53.6,60.5,56.1,51.2,94,76,50,29.87,29.80,14,0,14,0.00
2013-8-25,81.3,67.5,59.7,65.9,60.4,56.1,93,79,58,29.92,29.85,6,0,11,0.00
2013-8-26,79.6,65.8,58.1,62.7,57.2,52.8,92,76,47,29.99,29.88,5,0,7,0.00
2013-8-27,86.8,65.1,50.9,60.7,55.5,48.3,93,74,39,29.88,29.80,6,0,10,0.00
2013-8-28,82.6,67.0,58.1,65.3,60.7,56.3,96,82,55,29.92,29.82,10,0,12,0.00
2013-8-29,81.4,67.9,61.3,65.6,61.7,59.3,95,82,55,30.03,29.92,6,0,12,0.00
2013-8-30,91.0,71.4,57.0,65.6,60.0,54.9,95,71,40,30.01,29.88,6,0,12,0.00
2013-8-31,83.3,65.5,53.7,61.8,56.8,50.8,93,76,44,29.95,29.87,6,1,11,0.00